When you browse on this site, cookies collect data to enhance your experience and personalize the content and advertising you see.
Visit our Privacy Policy to learn more. By continuing to use the site, you agree to this use of cookies and data.
  • In Österreich
  • Länderverzeichnis
  • Für 7 Tage
  • Wassertemperatur
  • Satellitenkarten
  • Wetterkarte
  • News
  • Widgets
  • user-avatar
    Anmelden

    Stündliche Wetter Marsa Alam

    Heute, 19 Januar, Samstag

    Zeit Temperatur Niederschläge Wind Luftdruck Luftfeuchtigkeit
    00:00 +12°C° 0 mm 1 m/S 717 mmHg 69%
    01:00 +12°C° 0 mm 1 m/S 717 mmHg 69%
    02:00 +11°C° 0 mm 1 m/S 716 mmHg 70%
    03:00 +11°C° 0 mm 1 m/S 716 mmHg 70%
    04:00 +11°C° 0 mm 1 m/S 716 mmHg 71%
    05:00 +10°C° 0 mm 1 m/S 716 mmHg 72%
    06:00 +12°C° 0 mm 1 m/S 717 mmHg 65%
    07:00 +13°C° 0 mm 1 m/S 717 mmHg 58%
    08:00 +15°C° 0 mm 1 m/S 717 mmHg 49%
    09:00 +16°C° 0 mm 1 m/S 717 mmHg 43%
    10:00 +18°C° 0 mm 2 m/S 718 mmHg 37%
    11:00 +19°C° 0 mm 2 m/S 718 mmHg 31%
    12:00 +20°C° 0 mm 2 m/S 718 mmHg 29%
    13:00 +21°C° 0 mm 2 m/S 718 mmHg 27%
    14:00 +21°C° 0 mm 3 m/S 717 mmHg 29%
    15:00 +20°C° 0 mm 3 m/S 717 mmHg 32%
    16:00 +20°C° 0 mm 3 m/S 717 mmHg 35%
    17:00 +19°C° 0 mm 3 m/S 717 mmHg 38%
    18:00 +18°C° 0 mm 2 m/S 717 mmHg 45%
    19:00 +17°C° 0 mm 2 m/S 717 mmHg 52%
    20:00 +16°C° 0 mm 1 m/S 717 mmHg 59%
    21:00 +15°C° 0 mm 1 m/S 717 mmHg 63%
    22:00 +14°C° 0 mm 1 m/S 717 mmHg 68%
    23:00 +14°C° 0 mm 1 m/S 717 mmHg 73%

    Morgen, 20 Januar, Sonntag

    Zeit Temperatur Niederschläge Wind Luftdruck Luftfeuchtigkeit
    00:00 +13°C° 0 mm 1 m/S 717 mmHg 74%
    01:00 +12°C° 0 mm 0 m/S 717 mmHg 76%
    02:00 +11°C° 0 mm 0 m/S 717 mmHg 78%
    03:00 +11°C° 0 mm 0 m/S 717 mmHg 78%
    04:00 +11°C° 0 mm 0 m/S 717 mmHg 78%
    05:00 +10°C° 0 mm 0 m/S 717 mmHg 78%
    06:00 +12°C° 0 mm 0 m/S 717 mmHg 70%
    07:00 +13°C° 0 mm 0 m/S 717 mmHg 61%
    08:00 +15°C° 0 mm 0 m/S 718 mmHg 53%
    09:00 +18°C° 0 mm 1 m/S 718 mmHg 46%
    10:00 +20°C° 0 mm 1 m/S 718 mmHg 39%
    11:00 +22°C° 0 mm 1 m/S 718 mmHg 32%
    12:00 +22°C° 0 mm 1 m/S 718 mmHg 30%
    13:00 +23°C° 0 mm 2 m/S 717 mmHg 28%
    14:00 +24°C° 0 mm 2 m/S 717 mmHg 26%
    15:00 +23°C° 0 mm 2 m/S 717 mmHg 31%
    16:00 +21°C° 0 mm 2 m/S 717 mmHg 36%
    17:00 +20°C° 0 mm 2 m/S 716 mmHg 41%
    18:00 +19°C° 0 mm 2 m/S 717 mmHg 48%
    19:00 +19°C° 0 mm 1 m/S 717 mmHg 56%
    20:00 +18°C° 0 mm 1 m/S 717 mmHg 63%
    21:00 +15°C° 0 mm 0 m/S 717 mmHg 66%
    22:00 +15°C° 0 mm 0 m/S 717 mmHg 70%
    23:00 +14°C° 0 mm 0 m/S 717 mmHg 73%

    übermorgen, 21 Januar, Montag

    Zeit Temperatur Niederschläge Wind Luftdruck Luftfeuchtigkeit
    00:00 +14°C° 0 mm 0 m/S 716 mmHg 74%
    01:00 +13°C° 0 mm 0 m/S 716 mmHg 74%
    02:00 +13°C° 0 mm 0 m/S 716 mmHg 75%
    03:00 +14°C° 0 mm 1 m/S 716 mmHg 75%
    04:00 +13°C° 0 mm 1 m/S 716 mmHg 76%
    05:00 +13°C° 0 mm 1 m/S 716 mmHg 77%
    06:00 +15°C° 0 mm 1 m/S 717 mmHg 70%
    07:00 +16°C° 0 mm 1 m/S 717 mmHg 63%
    08:00 +18°C° 0 mm 1 m/S 717 mmHg 56%
    09:00 +20°C° 0 mm 1 m/S 718 mmHg 47%
    10:00 +22°C° 0 mm 1 m/S 718 mmHg 39%
    11:00 +24°C° 0 mm 1 m/S 718 mmHg 30%
    12:00 +25°C° 0 mm 1 m/S 717 mmHg 28%
    13:00 +25°C° 0 mm 1 m/S 717 mmHg 25%
    14:00 +26°C° 0 mm 2 m/S 717 mmHg 23%
    15:00 +25°C° 0 mm 2 m/S 717 mmHg 28%
    16:00 +24°C° 0 mm 2 m/S 716 mmHg 33%
    17:00 +23°C° 0 mm 2 m/S 716 mmHg 39%
    18:00 +21°C° 0 mm 2 m/S 716 mmHg 46%
    19:00 +21°C° 0 mm 1 m/S 717 mmHg 54%
    20:00 +19°C° 0 mm 1 m/S 717 mmHg 62%
    21:00 +19°C° 0 mm 1 m/S 717 mmHg 64%
    22:00 +18°C° 0 mm 1 m/S 716 mmHg 67%
    23:00 +16°C° 0 mm 1 m/S 716 mmHg 70%

    22 Januar, Dienstag

    Zeit Temperatur Niederschläge Wind Luftdruck Luftfeuchtigkeit
    00:00 +16°C° 0 mm 1 m/S 716 mmHg 69%
    01:00 +16°C° 0 mm 1 m/S 716 mmHg 69%
    02:00 +15°C° 0 mm 1 m/S 716 mmHg 68%
    03:00 +15°C° 0 mm 1 m/S 716 mmHg 67%
    04:00 +15°C° 0 mm 1 m/S 715 mmHg 66%
    05:00 +15°C° 0 mm 1 m/S 715 mmHg 65%
    06:00 +16°C° 0 mm 1 m/S 716 mmHg 58%
    07:00 +18°C° 0 mm 1 m/S 716 mmHg 52%
    08:00 +20°C° 0 mm 1 m/S 717 mmHg 46%
    09:00 +21°C° 0 mm 1 m/S 717 mmHg 39%
    10:00 +23°C° 0 mm 1 m/S 717 mmHg 32%
    11:00 +24°C° 0 mm 1 m/S 717 mmHg 24%
    12:00 +25°C° 0 mm 2 m/S 717 mmHg 24%
    13:00 +26°C° 0 mm 2 m/S 716 mmHg 23%
    14:00 +26°C° 0 mm 2 m/S 716 mmHg 22%
    15:00 +25°C° 0 mm 2 m/S 716 mmHg 27%
    16:00 +24°C° 0 mm 2 m/S 715 mmHg 32%
    17:00 +23°C° 0 mm 2 m/S 715 mmHg 37%
    18:00 +21°C° 0 mm 2 m/S 715 mmHg 44%
    19:00 +21°C° 0 mm 1 m/S 716 mmHg 51%
    20:00 +19°C° 0 mm 1 m/S 716 mmHg 59%
    21:00 +19°C° 0 mm 1 m/S 716 mmHg 60%
    22:00 +18°C° 0 mm 1 m/S 716 mmHg 61%
    23:00 +18°C° 0 mm 1 m/S 715 mmHg 63%

    23 Januar, Mittwoch

    Zeit Temperatur Niederschläge Wind Luftdruck Luftfeuchtigkeit
    00:00 +16°C° 0 mm 1 m/S 715 mmHg 61%
    01:00 +16°C° 0 mm 1 m/S 715 mmHg 60%
    02:00 +15°C° 0 mm 1 m/S 714 mmHg 59%
    03:00 +15°C° 0 mm 1 m/S 714 mmHg 59%
    04:00 +15°C° 0 mm 1 m/S 714 mmHg 58%
    05:00 +14°C° 0 mm 1 m/S 714 mmHg 58%
    06:00 +16°C° 0 mm 1 m/S 715 mmHg 53%
    07:00 +18°C° 0 mm 1 m/S 715 mmHg 49%
    08:00 +20°C° 0 mm 1 m/S 716 mmHg 44%
    09:00 +20°C° 0 mm 2 m/S 716 mmHg 38%
    10:00 +23°C° 0 mm 2 m/S 716 mmHg 32%
    11:00 +25°C° 0 mm 2 m/S 716 mmHg 26%
    12:00 +25°C° 0 mm 3 m/S 715 mmHg 26%
    13:00 +26°C° 0 mm 3 m/S 715 mmHg 25%
    14:00 +27°C° 0 mm 3 m/S 714 mmHg 24%
    15:00 +26°C° 0 mm 3 m/S 714 mmHg 28%
    16:00 +25°C° 0 mm 3 m/S 714 mmHg 32%
    17:00 +24°C° 0 mm 2 m/S 714 mmHg 36%
    18:00 +23°C° 0 mm 2 m/S 714 mmHg 42%
    19:00 +20°C° 0 mm 2 m/S 714 mmHg 49%
    20:00 +20°C° 0 mm 1 m/S 714 mmHg 55%
    21:00 +20°C° 0 mm 1 m/S 714 mmHg 56%
    22:00 +19°C° 0 mm 1 m/S 714 mmHg 57%
    23:00 +19°C° 0 mm 1 m/S 714 mmHg 57%

    24 Januar, Donnerstag

    Zeit Temperatur Niederschläge Wind Luftdruck Luftfeuchtigkeit
    00:00 +18°C° 0 mm 1 m/S 714 mmHg 58%
    01:00 +18°C° 0 mm 1 m/S 713 mmHg 59%
    02:00 +16°C° 0 mm 1 m/S 713 mmHg 60%
    03:00 +16°C° 0 mm 1 m/S 713 mmHg 60%
    04:00 +16°C° 0 mm 1 m/S 713 mmHg 61%
    05:00 +16°C° 0 mm 1 m/S 713 mmHg 62%
    06:00 +18°C° 0 mm 1 m/S 714 mmHg 55%
    07:00 +20°C° 0 mm 1 m/S 714 mmHg 49%
    08:00 +21°C° 0 mm 2 m/S 715 mmHg 42%
    09:00 +24°C° 0 mm 2 m/S 715 mmHg 36%
    10:00 +26°C° 0 mm 2 m/S 715 mmHg 31%
    11:00 +28°C° 0 mm 3 m/S 715 mmHg 25%
    12:00 +29°C° 0 mm 3 m/S 715 mmHg 24%
    13:00 +29°C° 0 mm 3 m/S 715 mmHg 23%
    14:00 +30°C° 0 mm 4 m/S 714 mmHg 21%
    15:00 +29°C° 0 mm 3 m/S 714 mmHg 26%
    16:00 +28°C° 0 mm 3 m/S 714 mmHg 31%
    17:00 +27°C° 0 mm 3 m/S 714 mmHg 36%
    18:00 +26°C° 0 mm 2 m/S 714 mmHg 44%
    19:00 +24°C° 0 mm 2 m/S 714 mmHg 52%
    20:00 +23°C° 0 mm 1 m/S 715 mmHg 61%
    21:00 +22°C° 0 mm 1 m/S 715 mmHg 61%
    22:00 +22°C° 0 mm 1 m/S 715 mmHg 61%
    23:00 +22°C° 0 mm 1 m/S 715 mmHg 61%
    Mehr zeigen